FW8612 Weather Reports


time (UTC)temp
C
wind
direction
speed
KPH
gust
KPH
rain 1hr
cm
rain 24hr
cm
rain mn
cm
humidity
%
barometer
mb
20260509000052 15 143 0.0 0.0 0.00 0.00 0.00 68 1015.1
20260508234558 15 153 0.0 4.8 0.00 0.00 0.00 67 1014.9
20260508233057 15 255 0.0 6.4 0.00 0.00 0.00 66 1015.1
20260508231600 16 134 1.6 4.8 0.00 0.00 0.00 66 1014.8
20260508230055 16 110 1.6 6.4 0.00 0.00 0.00 65 1014.9
20260508224557 16 0 0.0 8.0 0.00 0.00 0.00 64 1014.8
20260508223056 16 103 0.0 4.8 0.00 0.00 0.00 64 1015.0
20260508221554 16 126 1.6 6.4 0.00 0.00 0.00 62 1014.9
20260508220059 17 219 1.6 12.9 0.00 0.00 0.00 61 1014.8
20260508214607 17 121 3.2 9.7 0.00 0.00 0.00 60 1014.8
20260508213052 17 0 1.6 6.4 0.00 0.00 0.00 60 1014.9
20260508211555 17 137 0.0 6.4 0.00 0.00 0.00 59 1014.6
20260508210056 17 0 0.0 6.4 0.00 0.00 0.00 59 1014.6
20260508204552 17 129 1.6 8.0 0.00 0.00 0.00 58 1014.7
20260508203054 17 0 0.0 4.8 0.00 0.00 0.00 59 1014.8
20260508201553 17 268 0.0 4.8 0.00 0.00 0.00 57 1014.9
20260508200052 17 0 0.0 6.4 0.00 0.00 0.00 58 1015.0
20260508194551 17 171 3.2 6.4 0.00 0.00 0.00 58 1015.6
20260508193105 17 0 0.0 4.8 0.00 0.00 0.00 57 1015.9
20260508191558 17 227 0.0 8.0 0.00 0.00 0.00 56 1016.2
20260508190107 17 0 3.2 11.3 0.00 0.00 0.00 53 1016.1
20260508184555 18 112 1.6 8.0 0.00 0.00 0.00 55 1016.5
20260508183110 17 0 0.0 4.8 0.00 0.00 0.00 57 1016.6
20260508181554 17 133 1.6 11.3 0.00 0.00 0.00 58 1016.8
20260508174612 17 0 1.6 6.4 0.00 0.00 0.00 55 1017.1
20260508173057 17 300 3.2 8.0 0.00 0.00 0.00 54 1017.2
20260508171601 16 0 1.6 11.3 0.00 0.00 0.00 54 1017.4
20260508170106 17 0 1.6 6.4 0.00 0.00 0.00 50 1017.4
20260508164559 16 0 0.0 4.8 0.00 0.00 0.00 53 1017.7
20260508163055 16 0 1.6 6.4 0.00 0.00 0.00 51 1018.0
20260508161605 16 174 0.0 3.2 0.00 0.00 0.00 53 1018.1
20260508160054 15 0 0.0 1.6 0.00 0.00 0.00 54 1018.3
20260508154600 15 0 0.0 4.8 0.00 0.00 0.00 57 1018.6
20260508153056 15 0 1.6 6.4 0.00 0.00 0.00 54 1018.7
20260508151554 14 0 0.0 0.0 0.00 0.00 0.00 57 1018.7
20260508150056 14 0 0.0 0.0 0.00 0.00 0.00 57 1018.7
20260508144554 14 0 0.0 0.0 0.00 0.00 0.00 62 1018.7
20260508143055 13 0 0.0 0.0 0.00 0.00 0.00 64 1018.8
20260508141605 13 0 0.0 0.0 0.00 0.00 0.00 65 1018.9
20260508140056 12 0 0.0 0.0 0.00 0.00 0.00 69 1019.1
20260508134557 11 0 0.0 0.0 0.00 0.00 0.00 71 1018.9
20260508133100 11 0 0.0 0.0 0.00 0.00 0.00 74 1019.0
20260508131606 10 0 0.0 0.0 0.00 0.00 0.00 82 1019.2
20260508130053 10 0 0.0 0.0 0.00 0.00 0.00 89 1019.0
20260508124556 8 0 0.0 0.0 0.00 0.03 0.00 90 1018.9
20260508123113 8 0 0.0 0.0 0.00 0.03 0.00 92 1018.9
20260508121601 7 0 0.0 0.0 0.00 0.03 0.00 93 1018.8
20260508120109 7 0 0.0 0.0 0.00 0.03 0.00 93 1018.7
20260508114601 7 0 0.0 0.0 0.00 0.18 0.00 92 1018.5
20260508113107 6 0 0.0 0.0 0.00 0.18 0.00 94 1018.3
20260508111551 6 0 0.0 0.0 0.00 0.18 0.00 94 1017.8
20260508110105 6 0 0.0 0.0 0.00 0.18 0.00 94 1017.8
20260508104556 6 0 0.0 0.0 0.00 0.25 0.00 94 1017.5
20260508103101 6 0 0.0 0.0 0.00 0.25 0.00 93 1017.4
20260508101556 6 0 0.0 0.0 0.00 0.25 0.00 93 1017.1
20260508100053 6 0 0.0 0.0 0.00 0.25 0.00 93 1016.9
20260508094600 7 0 0.0 0.0 0.00 0.25 0.00 92 1016.8
20260508093105 7 0 0.0 0.0 0.00 0.25 0.00 92 1016.7
20260508091556 7 0 0.0 0.0 0.00 0.25 0.00 91 1016.6
20260508090100 7 0 0.0 0.0 0.00 0.25 0.00 91 1016.6
20260508084558 7 0 0.0 0.0 0.00 0.28 0.00 91 1016.6
20260508083052 8 0 0.0 0.0 0.00 0.28 0.00 91 1016.5
20260508081601 8 0 0.0 0.0 0.00 0.28 0.00 91 1016.3
20260508080051 8 0 0.0 0.0 0.00 0.28 0.00 91 1016.3
20260508074556 8 0 0.0 0.0 0.00 0.38 0.00 90 1016.2
20260508073055 8 0 0.0 0.0 0.00 0.38 0.00 90 1016.2
20260508071552 8 0 0.0 0.0 0.00 0.38 0.00 92 1015.9
20260508070053 8 0 0.0 0.0 0.00 0.38 0.00 93 1016.0
20260508064553 8 0 0.0 0.0 0.00 0.41 0.00 93 1015.7
20260508063102 8 0 0.0 0.0 0.00 0.41 0.00 94 1015.7
20260508061557 8 0 0.0 0.0 0.00 0.41 0.00 94 1015.8
20260508060056 8 0 0.0 0.0 0.00 0.41 0.00 93 1015.6
20260508054555 8 0 0.0 0.0 0.00 0.56 0.00 93 1015.7
20260508053105 8 0 0.0 0.0 0.00 0.56 0.00 92 1015.9
20260508051559 8 0 0.0 0.0 0.00 0.56 0.00 91 1015.8
20260508050057 8 0 0.0 0.0 0.00 0.56 0.00 91 1015.7
20260508044556 9 0 0.0 0.0 0.00 0.97 0.00 90 1015.6
20260508043103 8 0 0.0 0.0 0.00 0.97 0.00 90 1015.6
20260508041600 8 0 0.0 0.0 0.00 0.97 0.00 89 1015.5
20260508040055 9 0 0.0 0.0 0.00 0.97 0.00 88 1015.5
20260508034607 10 0 0.0 0.0 0.00 0.99 0.97 87 1015.4
20260508033055 10 0 0.0 0.0 0.00 0.99 0.97 85 1015.5
20260508031558 10 0 0.0 0.0 0.00 0.99 0.97 87 1015.6
20260508030059 10 0 0.0 3.2 0.00 0.99 0.97 86 1015.5
20260508024553 10 0 0.0 1.6 0.00 1.09 0.97 85 1015.4
20260508023052 10 0 0.0 1.6 0.00 1.09 0.97 86 1015.1
20260508021601 10 0 0.0 0.0 0.00 1.09 0.97 87 1014.9
20260508020057 10 0 0.0 0.0 0.00 1.09 0.97 87 1014.6
20260508014551 10 0 0.0 0.0 0.00 1.14 0.97 86 1014.6
20260508013059 10 0 0.0 0.0 0.00 1.14 0.97 85 1014.3
20260508011558 10 0 0.0 0.0 0.00 1.14 0.97 84 1014.2
20260508010051 11 0 0.0 0.0 0.00 1.14 0.97 83 1014.2
20260508004553 11 0 0.0 1.6 0.00 1.47 0.97 81 1013.8
20260508003053 11 0 0.0 3.2 0.00 1.47 0.97 80 1013.6
20260508001611 11 0 0.0 9.7 0.00 1.47 0.97 79 1013.4